Printer-friendly version

IAU Minor Planet Center

Minor Planet Center

MPEC 2009-J54 : 2009 JM2

The following Minor Planet Electronic Circular may be linked-to from your own Web pages, but must not otherwise be redistributed electronically.


Read MPEC 2009-J53 Read MPEC 2009-J55


M.P.E.C. 2009-J54                                Issued 2009 May 13, 15:54 UT

     The Minor Planet Electronic Circulars contain information on unusual
         minor planets and routine data on comets.  They are published
   on behalf of Commission 20 of the International Astronomical Union by the
          Minor Planet Center, Smithsonian Astrophysical Observatory,
                          Cambridge, MA 02138, U.S.A.

             Prepared using the Tamkin Foundation Computer Network

                              MPC@CFA.HARVARD.EDU
          URL http://www.cfa.harvard.edu/iau/mpc.html  ISSN 1523-6714

                                   2009 JM2

Observations:
     K09J02M  C2009 05 12.38649 14 31 24.06 +51 54 57.9          16.4 V EJ054703
     K09J02M* C2009 05 12.38710 14 31 24.24 +51 54 48.8          16.6 V EJ054703
     K09J02M  C2009 05 12.39128 14 31 25.32 +51 53 47.5          16.5 V EJ054703
     K09J02M  C2009 05 12.39189 14 31 25.53 +51 53 38.4          16.6 V EJ054703
     K09J02M  C2009 05 12.39608 14 31 26.61 +51 52 37.1          16.5 V EJ054703
     K09J02M  C2009 05 12.39669 14 31 26.76 +51 52 28.3          16.6 V EJ054703
     K09J02M  C2009 05 12.40089 14 31 27.91 +51 51 26.5          16.5 V EJ054703
     K09J02M  C2009 05 12.40149 14 31 28.05 +51 51 17.7          16.6 V EJ054703
     K09J02M  C2009 05 12.42731 14 31 35.07 +51 44 58.2          16.6 V EJ054703
     K09J02M  C2009 05 12.42784 14 31 35.22 +51 44 50.5          16.6 V EJ054703
     K09J02M  C2009 05 12.42832 14 31 35.36 +51 44 43.5          16.6 V EJ054703
     K09J02M  C2009 05 12.42874 14 31 35.47 +51 44 37.2          16.6 V EJ054703
     K09J02M %C2009 05 12.46381 14 31 45.03 +51 35 55.0          16.2 R EJ054H06
     K09J02M %C2009 05 12.46555 14 31 45.51 +51 35 29.0          16.2 R EJ054H06
     K09J02M %C2009 05 12.46728 14 31 45.96 +51 35 03.3          16.1 R EJ054H06
     K09J02M  C2009 05 12.47567 14 31 48.54 +51 33 04.4          16.6 V EJ054703
     K09J02M  C2009 05 12.47615 14 31 48.64 +51 32 57.6          16.6 V EJ054703
     K09J02M  C2009 05 12.47651 14 31 48.82 +51 32 51.8          16.5 V EJ054703
     K09J02M  C2009 05 12.47696 14 31 48.90 +51 32 45.0          16.6 V EJ054703
     K09J02M  C2009 05 12.75815 14 33 20.26 +50 24 31.5          16.8   EJ054114
     K09J02M  C2009 05 12.75880 14 33 20.39 +50 24 22.5          16.7   EJ054114
     K09J02M  C2009 05 12.75933 14 33 20.51 +50 24 15.9          16.8   EJ054114
     K09J02M  C2009 05 12.75985 14 33 20.67 +50 24 08.3          16.8   EJ054114
     K09J02M  C2009 05 12.76038 14 33 20.76 +50 24 01.4          16.8   EJ054114
     K09J02M  C2009 05 12.84978 14 33 45.44 +50 01 47.1          16.4 C EJ054B15
     K09J02M  C2009 05 12.85063 14 33 45.67 +50 01 34.7          16.4 C EJ054B15
     K09J02M  C2009 05 12.85178 14 33 45.95 +50 01 17.8          16.5 C EJ054B15
     K09J02M  C2009 05 12.85633 14 33 47.43 +50 00 19.6          16.8 V EJ054595
     K09J02M  C2009 05 12.85857 14 33 47.96 +49 59 46.6          16.8 V EJ054595
     K09J02M  C2009 05 12.86297 14 33 49.09 +49 58 41.7          16.7 V EJ054595
     K09J02M  C2009 05 12.91232114 34 02.67 +49 46 19.5          16.8 V EJ054J16
     K09J02M  C2009 05 12.91890214 34 04.35 +49 44 42.1          16.7 V EJ054J16
     K09J02M  C2009 05 12.92348414 34 05.51 +49 43 34.6          16.9 V EJ054J16
     K09J02M  C2009 05 12.92829 14 34 06.85 +49 42 25.2                 EJ054J41
     K09J02M  C2009 05 12.92981 14 34 07.10 +49 42 01.9                 EJ054J41
     K09J02M  C2009 05 12.93111 14 34 07.45 +49 41 42.8          17.1 C EJ054J41
     K09J02M  C2009 05 12.95908 14 34 12.41 +49 34 54.0          16.3 R EJ054118
     K09J02M  C2009 05 12.96127 14 34 12.95 +49 34 21.3          16.3 R EJ054118
     K09J02M  C2009 05 12.96247 14 34 13.24 +49 34 03.4          16.3 R EJ054118
     K09J02M  C2009 05 12.96367 14 34 13.54 +49 33 45.4          16.3 R EJ054118
     K09J02M  C2009 05 12.96487 14 34 13.85 +49 33 27.4          16.3 R EJ054118
     K09J02M  C2009 05 12.96607 14 34 14.13 +49 33 09.5          16.2 R EJ054118
     K09J02M  C2009 05 12.96727 14 34 14.43 +49 32 51.7          16.4 R EJ054118
     K09J02M .C2009 05 13.12720 14 35 04.91 +48 53 07.5          16.2 R EJ054H06
     K09J02M .C2009 05 13.12895 14 35 05.35 +48 52 41.4          16.2 R EJ054H06
     K09J02M .C2009 05 13.13069 14 35 05.76 +48 52 15.8          16.2 R EJ054H06
     K09J02M 5C2009 05 13.14815 14 35 10.94 +48 47 48.7          16.3 R EJ054673
     K09J02M 5C2009 05 13.15220 14 35 11.96 +48 46 48.8                 EJ054673
     K09J02M 5C2009 05 13.15961 14 35 13.68 +48 44 59.1                 EJ054673
     K09J02M 5C2009 05 13.16273 14 35 14.50 +48 44 12.5                 EJ054673
     K09J02M  C2009 05 13.17635 14 35 17.90 +48 40 50.1          16.2 R EJ054670
     K09J02M  C2009 05 13.17675 14 35 17.52 +48 40 49.9          16.1 R EJ054854
     K09J02M  C2009 05 13.17704 14 35 17.47 +48 40 45.6          16.1 R EJ054854
     K09J02M  C2009 05 13.17732 14 35 17.49 +48 40 42.5          16.1 R EJ054854
     K09J02M  C2009 05 13.18025 14 35 18.76 +48 39 52.4          16.5 R EJ054670
     K09J02M  C2009 05 13.18520 14 35 20.00 +48 38 38.9                 EJ054670
     K09J02M *C2009 05 13.18661 14 35 19.13 +48 38 25.5          16.2 C EJ054H06
     K09J02M  C2009 05 13.18987 14 35 20.48 +48 37 34.7          16.2 R EJ054854
     K09J02M  C2009 05 13.19044 14 35 20.61 +48 37 26.5          16.3 R EJ054854
     K09J02M  C2009 05 13.19103 14 35 20.74 +48 37 17.2          16.3 R EJ054854
     K09J02M *C2009 05 13.19324 14 35 20.67 +48 36 46.8          16.2 C EJ054H06
     K09J02M  C2009 05 13.19387 14 35 22.09 +48 36 30.5          16.2 R EJ054670
     K09J02M  C2009 05 13.21816 14 35 27.97 +48 30 23.1          16.5 V EJ054G56
     K09J02M  C2009 05 13.22148 14 35 28.71 +48 29 33.7          17.2 V EJ054G56
     K09J02M  C2009 05 13.22496 14 35 29.54 +48 28 41.3          17.4 V EJ054G56
     K09J02M  C2009 05 13.56892 14 36 58.23 +47 01 43.1          16.3 V EJ054900
     K09J02M  C2009 05 13.57075 14 36 58.60 +47 01 15.3          16.3 V EJ054900
     K09J02M  C2009 05 13.57258 14 36 59.02 +47 00 47.2          16.4 V EJ054900
     K09J02M  C2009 05 13.57441 14 36 59.41 +47 00 19.1          16.3 V EJ054900

Observer details:
114 Engelhardt Observatory, Zelenchukskaya Station.  Observers =. Kryachko,
    B. Satovski.  Measurer T. Kryachko.  0.3-m f/7.7 reflector + CCD.
118 Modra.  Observer S. Gajdos.  0.6-m f/5.5 reflector + CCD.
595 Farra d'Isonzo.  Observers E. Pettarin, L. Bittesini, F. Piani.  Measurer
    E. Pettarin.  0.40-m f/4.5 reflector + CCD.
670 Camarillo.  Observer J. E. Rogers.
673 Table Mountain Observatory, Wrightwood.  Observer J. Young.  0.61-m f/16
    Cassegrain + CCD.
703 Catalina Sky Survey.  Observer A. Boattini.  Measurers E. C. Beshore,
    A. Boattini, G. J. Garradd, A. R. Gibbs, A. D. Grauer, R. E. Hill,
    R. A. Kowalski, S. M. Larson, R. H. McNaught.  0.68-m Schmidt + CCD.
854 Sabino Canyon Observatory, Tucson.  Observer J. E. McGaha.  0.36-m f/10.0
    Schmidt-Cassegrain + CCD.
900 Moriyama.  Observer Y. Ikari.  0.26-m f/7.0 reflector + CCD.
B15 Inastars Observatory, Potsdam (since 2006).  Observer B. Thinius.  0.36-m
    f/5.8 Schmidt-Cassegrain + CCD.
G56 Walnut Creek.  Observer G. McKeegan.  0.28-m Schmidt-Cassegrain + CCD
    + f/6.2 focal reducer.
H06 RAS Observatory, Mayhill.  Observers E. Guido, G. Sostero, P. Camilleri,
    E. Prosperi, C. Jacques, E. Pimentel, R. Ligustri.  Measurers E. Guido,
    G. Sostero, P. Camilleri, E. Prosperi, C. Jacques, R. Ligustri.  0.25-m
    f/3 reflector + CCD, 0.25-m f/3.4 reflector + CCD.
J16 An Carraig Observatory, Loughinisland.  Observer K. Rooney.  0.25-m f/10.0
    Schmidt-Cassegrain + CCD.
J41 Raheny.  Observer D. Grennan.  0.36-m f/4.6 Schmidt-Cassegrain + CCD.

Orbital elements:
2009 JM2                                                 Earth MOID = 0.1038 AU
Epoch 2009 June 18.0 TT = JDT 2455000.5                 MPC
M  19.17133              (2000.0)            P               Q
n   0.26887421     Peri.  117.18016     -0.95997259     +0.06546608
a   2.3774056      Node    67.64966     -0.19520302     -0.85365563
e   0.6028677      Incl.   17.12496     +0.20086913     -0.51670713
P   3.67           H   18.9           G   0.15           U   7
Residuals in seconds of arc
090512 703  0.1-  0.2+    090512 114 (1.2-  4.9+)   090513 673  0.5+  0.2+
090512 703  0.1+  0.0     090512 B15  0.3-  0.2-    090513 673  0.7+  0.2+
090512 703  0.2-  0.1-    090512 B15  0.2-  0.1-    090513 673  0.3-  0.1+
090512 703  0.2+  0.2-    090512 B15  0.3-  0.1-    090513 673  0.3+  0.3-
090512 703  0.2-  0.1-    090512 595  0.3+  0.3+    090513 670  0.1+  0.2-
090512 703  0.3-  0.0     090512 595  0.0   0.2+    090513 854  1.7+  1.1-
090512 703  0.1-  0.2-    090512 595  0.3+  0.0     090513 854  0.5+  1.1-
090512 703  0.3-  0.2-    090512 J16  0.0   0.5+    090513 854  0.0   0.0
090512 703  0.0   0.1-    090512 J16  0.1+  0.3+    090513 670  0.7-  0.0
090512 703  0.0   0.0     090512 J16  0.1+  0.5+    090513 670  0.2-  0.0
090512 703  0.1+  0.0     090512 J41  0.7+  0.9+    090513 H06  0.0   0.2-
090512 703  0.1+  0.1-    090512 J41  0.5-  0.1+    090513 854  0.3+  1.1-
090512 H06  0.2+  0.0     090512 J41  0.3-  0.2+    090513 854  0.3+  0.8-
090512 H06  0.1+  0.2-    090512 118  0.2-  0.1+    090513 854  0.2+  1.3-
090512 H06  0.3-  0.3-    090512 118  0.2-  0.1+    090513 H06  0.1-  0.0
090512 703  0.2+  0.2+    090512 118  0.2-  0.1+    090513 670  0.0   0.4+
090512 703  0.1-  0.5+    090512 118  0.2-  0.1+    090513 G56  0.1+  0.7+
090512 703  0.6+  0.0     090512 118  0.0   0.0     090513 G56  0.4-  0.9+
090512 703  0.1+  0.1-    090512 118  0.2-  0.1+    090513 G56  0.3-  0.4+
090512 114 (0.5-  2.5+)   090512 118  0.2-  0.2+    090513 900  0.0   0.1+
090512 114 (0.9-  2.9+)   090513 H06  0.3-  0.1-    090513 900  0.3-  0.3+
090512 114 (1.0-  4.1+)   090513 H06  0.2-  0.3-    090513 900  0.1-  0.2+
090512 114 (0.8-  4.0+)   090513 H06  0.3-  0.2-    090513 900  0.3-  0.1+

Ephemeris:
2009 JM2                 a,e,i = 2.38, 0.60, 17                  q = 0.9441
Date    TT    R. A. (2000) Decl.     Delta      r     Elong.  Phase     V
2009 05 09    14 10.05   +64 05.8    0.129    1.035    97.9    75.0    17.1
2009 05 19    14 54.73   +22 30.4    0.112    1.095   136.2    39.8    15.9
2009 05 29    15 12.61   -12 04.2    0.159    1.165   160.6    16.8    16.1
2009 06 08    15 24.42   -27 43.9    0.241    1.241   156.9    18.7    17.2
2009 06 18    15 35.12   -34 49.5    0.341    1.321   149.4    23.1    18.3
2009 06 28    15 46.53   -38 19.6    0.453    1.404   142.7    26.1    19.1
2009 07 08    15 59.33   -40 07.2    0.576    1.488   136.5    28.1    19.8
2009 07 18    16 13.48   -41 00.8    0.709    1.572   130.5    29.4    20.4
2009 07 28    16 28.87   -41 23.4    0.852    1.656   124.7    30.3    21.0
2009 08 07    16 45.33   -41 27.3    1.004    1.739   119.0    30.7    21.4
2009 08 17    17 02.60   -41 18.8    1.165    1.820   113.2    30.7    21.9

Sonia Keys                   (C) Copyright 2009 MPC           M.P.E.C. 2009-J54

Read MPEC 2009-J53 Read MPEC 2009-J55


Our Web policy. Index to the CBAT/MPC/ICQ pages.


Valid HTML 4.01!